www.pogodaiklimat.ru

Погода и климат >> Архив погоды >> Мали >> Kita


ПОГОДА в Kita

  • Прогноз погоды в Kita
  • Монитор погоды в Kita
  • Климат города

АРХИВ ПОГОДЫ в Kita

Время (UTC), дата Ветер
(напр.,м/с)
 
Видим.   Явления Облачность Т
(С)
Тd
(С)
f
(%)
Тe
(С)
Тes
(С)
Комфортность P
(гПа)
Po
(гПа)
Тmin
(С)
Tmax
(С)
R
(мм)
R24
(мм)
S
(см)
15 8.12 штиль 0 10 км 9/0
[Ac lent Ci sp]
+32.0 +4.7 18 +30 +38 жарко 1009.5 972.5
18 8.12 штиль 0 10 км 8/0
[Ci sp]
+30.5 +7.1 23 +29 +29 жарко 1009.8 972.6 +32.6
21 8.12 штиль 0 10 км 4/0
[Ci sp]
+26.0 +4.6 25 +25 +25 комфорт 1012.5 975.0
00 9.12 штиль 0 10 км 4/0
[Ci sp]
+24.0 +5.9 31 +24 +24 комфорт 1013.3 976.1
03 9.12 С 2 10 км 4/0
[Ci sp]
+22.5 +3.0 28 +22 +22 комфорт 1012.3 975.2
06 9.12 С 2 10 км 4/0
[Ci sp]
+20.7 +2.4 30 +22 +22 комфорт 1013.0 975.7 +20.5
09 9.12 СВ 3 10 км 3/0
[Ci sp]
+23.0 +4.5 30 +23 +26 комфорт 1014.6 977.1
12 9.12 СВ 3 10 км 5/0
[Ci sp]
+30.1 +4.5 20 +28 +39 жарко 1012.9 975.8
15 9.12 СВ 2 10 км 3/0
[Ci sp]
+33.1 +6.6 19 +31 +40 жарко 1010.6 973.7
18 9.12 штиль 0 10 км 8/0
[Ci sp]
+30.8 +7.4 23 +30 +30 жарко 1011.3 974.0 +33.9
21 9.12 штиль 0 10 км 8/0
[Ci sp]
+26.9 +5.7 26 +26 +26 жарко 1014.1 976.6
00 10.12 СВ 2 10 км 8/0
[Ci sp]
+23.5 +4.5 29 +23 +23 комфорт 1013.9 976.7
03 10.12 СВ 2 10 км 4/0
[Ci sp]
+22.0 +2.4 27 +22 +22 комфорт 1012.6 975.5
06 10.12 СВ 2 10 км 4/0
[Ci sp]
+20.4 +3.2 32 +21 +21 комфорт 1013.4 976.0 +20.0
09 10.12 СВ 2 10 км ясно +23.3 +3.8 28 +23 +27 комфорт 1015.2 977.7
12 10.12 ЮВ 3 10 км ясно +30.5 +5.3 20 +29 +40 жарко 1013.5 976.3
15 10.12 штиль 0 10 км ясно +32.0 +5.0 18 +30 +42 жарко 1010.5 973.6
18 10.12 штиль 0 10 км 1/0
[Ci sp]
+29.9 +6.4 23 +29 +29 жарко 1010.8 973.6 +32.8
21 10.12 штиль 0 10 км ясно +24.4 +7.9 35 +25 +25 комфорт 1013.0 975.4
00 11.12 штиль 0 10 км 3/0
[Ci sp]
+22.3 +4.5 31 +22 +22 комфорт 1013.2 975.9
03 11.12 штиль 0 10 км ясно +19.8 +3.7 34 +20 +20 1012.2 974.9
06 11.12 штиль 0 10 км ясно +19.8 +2.1 31 +20 +20 1012.9 975.4 +19.2
09 11.12 В 2 10 км 3/0
[Ci sp]
+23.0 +3.9 29 +23 +27 комфорт 1015.1 977.4
12 11.12 В 2 10 км ясно +29.9 +5.4 21 +28 +42 жарко 1013.1 975.8
15 11.12 штиль 0 10 км 3/0
[Ci sp]
+32.8 +5.7 18 +31 +42 жарко 1008.7 972.6
18 11.12 С 2 10 км 8/0
[Ci sp]
+30.4 +7.5 24 +29 +29 жарко 1010.0 972.7 +33.8
21 11.12 штиль 0 10 км 4/0
[Ci sp]
+25.3 +8.0 33 +25 +25 комфорт 1011.9 974.4
00 12.12 штиль 0 10 км 4/0
[Ci sp]
+20.5 +8.3 45 +21 +21 комфорт 1012.1 974.7
03 12.12 штиль 0 10 км 4/0
[Ci sp]
+19.9 +7.2 44 +21 +21 комфорт 1011.0 973.9
06 12.12 штиль 0 10 км 4/0
[Ci sp]
+16.5 +7.2 54 +16 +16 1011.7 974.1 +16.2
09 12.12 штиль 0 8000 м пыль ясно +22.5 +9.8 44 +24 +30 комфорт 1013.0 975.4
12 12.12 штиль 0 10 км ясно +32.3 +5.6 19 +30 +49 жарко 1011.6 974.4
15 12.12 штиль 0 10 км ясно +34.5 +7.5 19 +33 +45 жарко 1008.9 971.9
18 12.12 штиль 0 10 км 5/0
[Ci sp]
+31.5 +11.7 30 +32 +32 жарко 1009.9 972.5 +33.7
21 12.12 штиль 0 10 км 5/0
[Ci sp]
+24.7 +12.2 46 +26 +26 жарко 1011.8 974.3
00 13.12 штиль 0 10 км ясно +26.2 +7.6 31 +26 +26 жарко 1011.3 974.4
03 13.12 штиль 0 10 км ясно +20.3 +10.3 53 +22 +22 комфорт 1011.3 974.2
06 13.12 штиль 0 10 км 4/0
[Ci sp]
+19.5 +7.6 46 +20 +20 1011.9 974.6 +18.5
09 13.12 штиль 0 10 км ясно +24.2 +3.9 27 +24 +29 комфорт 1013.8 976.2
12 13.12 В 2 10 км ясно +31.2 +2.6 16 +29 +42 жарко 1011.1 974.2
15 13.12 З 2 10 км ясно +34.4 +6.7 18 +32 +41 жарко 1009.0 972.0
18 13.12 штиль 0 10 км 3/0
[Ci sp]
+35.5 +3.6 14 +33 +33 жарко 1009.8 972.8 +34.9
21 13.12 штиль 0 10 км 3/0
[Ci sp]
+25.5 +10.6 39 +26 +26 жарко 1012.3 974.9
00 14.12 С 2 10 км 4/0
[Ci sp]
+23.7 +5.4 31 +24 +24 комфорт 1013.0 975.9
03 14.12 СВ 2 10 км 3/0
[Ci sp]
+21.7 +4.7 33 +22 +22 комфорт 1011.9 974.9
06 14.12 С 2 10 км 3/0
[Ci sp]
+19.6 +5.4 39 +21 +21 комфорт 1012.7 975.6 +18.5
09 14.12 С 3 10 км ясно +21.8 +4.0 31 +22 +25 комфорт 1015.6 977.9
12 14.12 штиль 0 10 км ясно +28.0 +6.7 26 +27 +46 жарко 1014.3 976.9
15 14.12 СВ 2 10 км ясно +31.5 +7.2 22 +30 +39 жарко 1011.3 974.1
18 14.12 С 2 10 км ясно +29.6 +7.5 25 +29 +29 жарко 1012.1 974.7 +32.1
21 14.12 С 3 10 км ясно +25.3 +6.4 30 +25 +25 комфорт 1014.5 975.9
00 15.12 С 3 10 км ясно +22.8 +5.7 33 +23 +23 комфорт 1015.0 977.5
03 15.12 С 2 10 км ясно +21.0 +5.3 36 +22 +22 комфорт 1013.9 976.6
06 15.12 С 3 10 км ясно +19.3 +3.5 35 +20 +20 1014.6 977.0 +19.2
09 15.12 С 4 10 км 3/0
[Ci sp]
+21.5 +1.1 26 +21 +24 комфорт 1016.9 979.1
12 15.12 штиль 0 10 км ясно +27.0 +5.2 25 +26 +45 жарко 1014.7 977.2

 

Местоположение метеостанции Kita (Мали): широта 13.07 долгота -9.47 высота над уровнем моря 334 м.

В архиве по умолчанию представлена погода в Kita за последнюю неделю. Архивные данные за месяц целиком и за предыдущие месяцы, начиная с января 2011 года, Вы можете получить, выбрав интересующий диапазон дат из раскрывающегося списка и нажав кнопку "Ввод!".

Внимание! Время в таблицах - всемирное. Для получения местного времени необходимо прибавить поправку, которая в Kita равна 0 ч.

Смотрите также архив погоды в соседних городах и на ближайших метеорологических станциях:

Погода в Bamako (Мали) (175 км)
Погода в Kenieba (Мали) (192 км)
Погода в Nioro Du Sahel (Мали) (241 км)
Погода в Yelimane (Мали) (257 км)
Погода в Kayes (Мали) (260 км)
Погода в Bougouni (Мали) (282 км)
Погода в Kedougou (Сенегал) (302 км)
Погода в Nara (Мали) (332 км)
Погода в Segou (Мали) (361 км)
Погода в Aioun el Atrouss (Мавритания) (404 км)

Пояснения к столбцам:

Ветер - указаны скорость ветра в м/с - средняя за 10 мин, порывы в срок и между сроками (в фигурных скобках) и направление, откуда дует ветер: С - северный, СВ - северо-восточный, В - восточный, ЮВ - юго-восточный, Ю - южный, ЮЗ - юго-западный, З - западный, СЗ - северо-западный.
Видимость - горизонтальная дальность видимости в метрах или километрах. При видимости от 1 до 10 км при отсутствии осадков обычно наблюдается дымка, при ухудшении видимости до 1 км и менее - туман. В сухую погоду видимость может ухудшаться дымом, пылью или мглою.
Явления - указаны атмосферные явления, наблюдавшиеся в срок или в последний час перед сроком; фигурными скобками обозначены явления, наблюдавшиеся между сроками (за 1-3 часа до срока); квадратными скобками обозначены град или гололедные отложения с указанием их диаметра в мм.
Облачность - указаны через наклонную черту общая и нижняя облачность в баллах и высота нижней границы облаков в метрах; квадратными скобками обозначены формы облаков: Ci - перистые, Cs - перисто-слоистые, Cc - перисто-кучевые, Ac - высококучевые, As - высокослоистые, Sc - слоисто-кучевые, Ns - слоисто-дождевые, Cu - кучевые, Cb - кучево-дождевые. Подробнее классификацию облаков см. в Атласе облаков (PDF).
T - Температура воздуха - температура, измеренная на высоте 2 м над землей.
Td - Температура точки росы - температура, при понижении до которой содержащийся в воздухе водяной пар достигнет насыщения.
f - Относительная влажность воздуха - влажноcть воздуха, измеренная на высоте 2 м над землей.
Te - Эффективная температура - температура, которую ощущает одетый по сезону человек в тени. Характеристика душности погоды. При расчете учитывается влияние влажности воздуха и скорости ветра на теплоощущения человека.
Tes - Эффективная температура на солнце - температура, которую ощущает человек, с поправкой на солнечный нагрев. Характеристика знойности погоды. Зависит от высоты солнца над горизонтом, облачности и скорости ветра. Ночью, в пасмурную погоду, а также при ветре 12 м/с и более поправка равна нулю.
P - Атмосферное давление - приведенное к уровню моря атмосферное давление.
Po - Атмосферное давление - измеренное на уровне метеостанции атмосферное давление.
Tmin - Минимальная температура - минимум температуры воздуха на высоте 2 м над землей.
Tmax - Максимальная температура - максимум температуры воздуха на высоте 2 м над землей.
R - Количество осадков - Количество выпавших осадков за период времени, мм. При наведении курсора мыши на число - период времени, за который выпало указанное количество осадков.
R24 - Количество осадков - Количество выпавших осадков за 24 часа, мм.
S - Снежный покров - Высота снежного покрова, см. При наведении курсора мыши на число - состояние снежного покрова и степень покрытия местности в баллах.